SCP
0 0 0 0 0 0 0 0 0 0 0 0 0 0 0 0 0 0 0 0 0 0
0 0 0 0 0 0 0 0 0 0 0 0 0 0 0 0 0 0 0 0 0 0
0 0 0 0 0 0 0 0 0 0 0 0 0 0 0 0 0 0 0 0 0 0
0 0 0 0 0 0 0 0 0 0 0 0 0 0 0 0 0 0 0 0 0 0
0 0 0 0 0 0 0 0 0 0 0 0 0 0 0 0 0 0 0 0 0 0
0 0 0 0 0 0 0 0 0 0 0 0 0 0 0 0 0 0 0 0 0 0
0 0 0 0 0 0 0 0 0 0 0 0 0 0 0 0 0 0 0 0 0 0
0 0 0 0 0 0 0 0 0 0 0 0 0 0 0 0 0 0 0 0 0 0
0 0 0 0 0 0 0 0 0 0 0 0 0 0 0 0 0 0 0 0 0 0
0 0 0 0 0 0 0 0 0 0 0 0 0 0 0 0 0 0 0 0 0 0
0 0 0 0 0 0 0 0 0 0 0 0 0 0 0 0 0 0 0 0 0 0
0 0 0 0 0 0 0 0 0 0 0 0 0 0 0 0 0 0 0 0 0 0
0 0 0 0 0 0 0 0 0 0 0 0 0 0 0 0 0 0 0 0 0 0
0 0 0 0 0 0 0 0 0 0 0 0 0 0 0 0 0 0 0 0 0 0
Wind_Speed_500mb
64 65 71 71 73 81 77 71 68 65 67 68 66 62 57 53 50 46 43 37 31 25
64 66 72 71 80 81 78 78 74 71 76 74 69 64 60 56 51 47 41 34 27 22
63 65 69 73 81 80 81 81 79 78 81 78 72 66 61 56 51 45 38 30 25 20
65 65 71 78 77 79 87 85 83 84 85 80 74 68 62 56 50 45 38 32 26 21
67 69 72 74 77 80 85 87 88 90 88 83 77 70 63 58 51 44 38 32 25 21
72 75 75 76 77 77 84 86 91 91 89 87 80 73 66 56 48 43 37 29 21 18
76 75 73 73 75 80 86 91 94 95 93 89 82 74 67 59 52 46 38 28 16 28
72 76 77 75 76 76 81 89 94 100 99 91 83 75 69 62 54 47 37 24 24 31
75 80 84 78 80 81 84 92 99 103 103 97 89 78 69 61 56 49 33 30 32 38
80 83 86 83 81 85 88 94 102 106 106 99 90 79 72 65 58 46 39 43 37 43
79 83 83 85 82 84 88 92 101 110 106 95 89 80 74 68 63 52 46 50 46 46
70 78 82 84 80 81 88 91 101 108 101 94 91 82 76 72 60 56 61 55 52 49
53 65 71 74 77 83 86 91 98 98 93 89 86 80 77 73 61 67 69 59 57 53
31 43 52 60 67 71 74 78 80 84 86 84 80 77 75 72 72 77 75 67 63 65
Wind_Direction_500mb
227 223 225 223 226 226 218 217 213 213 209 202 201 201 200 201 202 202 202 204 203 208
226 223 220 224 228 216 219 214 211 209 207 201 201 201 201 202 202 200 200 200 199 202
228 224 225 228 224 222 220 214 209 206 205 202 201 201 202 201 201 200 197 196 200 204
227 226 227 230 229 226 222 214 210 208 205 203 202 202 203 202 201 199 199 198 200 205
227 228 228 227 228 227 224 216 211 207 206 204 204 205 204 204 200 200 200 200 200 207
227 228 230 233 233 231 225 218 214 210 210 207 206 205 205 204 203 200 198 197 195 253
230 229 231 236 235 232 227 220 215 211 212 210 208 206 205 202 200 198 195 191 229 240
235 232 233 235 236 236 231 223 215 211 211 211 209 208 206 203 200 198 192 208 226 243
234 234 233 235 237 238 233 223 215 213 213 210 208 207 206 205 202 196 202 231 226 244
236 233 233 235 239 239 235 226 218 215 213 211 209 206 207 205 203 200 225 255 228 244
239 238 235 235 237 239 237 229 222 218 215 212 211 207 207 208 201 219 243 247 232 245
240 238 237 235 237 241 238 230 224 220 217 215 213 210 210 210 209 232 254 248 235 239
243 240 239 239 240 241 237 230 224 220 219 219 217 215 215 214 223 242 258 249 249 238
241 242 240 239 239 240 237 231 226 226 223 222 221 221 221 218 235 250 261 249 255 248
Wind_Speed_850mb
64 65 71 71 73 81 77 71 68 65 67 68 66 62 57 53 50 46 43 37 31 25
64 66 72 71 80 81 78 78 74 71 76 74 69 64 60 56 51 47 41 34 27 22
63 65 69 73 81 80 81 81 79 78 81 78 72 66 61 56 51 45 38 30 25 20
65 65 71 78 77 79 87 85 83 84 85 80 74 68 62 56 50 45 38 32 26 21
67 69 72 74 77 80 85 87 88 90 88 83 77 70 63 58 51 44 38 32 25 21
72 75 75 76 77 77 84 86 91 91 89 87 80 73 66 56 48 43 37 29 21 18
76 75 73 73 75 80 86 91 94 95 93 89 82 74 67 59 52 46 38 28 16 28
72 76 77 75 76 76 81 89 94 100 99 91 83 75 69 62 54 47 37 24 24 31
75 80 84 78 80 81 84 92 99 103 103 97 89 78 69 61 56 49 33 30 32 38
80 83 86 83 81 85 88 94 102 106 106 99 90 79 72 65 58 46 39 43 37 43
79 83 83 85 82 84 88 92 101 110 106 95 89 80 74 68 63 52 46 50 46 46
70 78 82 84 80 81 88 91 101 108 101 94 91 82 76 72 60 56 61 55 52 49
53 65 71 74 77 83 86 91 98 98 93 89 86 80 77 73 61 67 69 59 57 53
31 43 52 60 67 71 74 78 80 84 86 84 80 77 75 72 72 77 75 67 63 65
Wind_Direction_850mb
227 223 225 223 226 226 218 217 213 213 209 202 201 201 200 201 202 202 202 204 203 208
226 223 220 224 228 216 219 214 211 209 207 201 201 201 201 202 202 200 200 200 199 202
228 224 225 228 224 222 220 214 209 206 205 202 201 201 202 201 201 200 197 196 200 204
227 226 227 230 229 226 222 214 210 208 205 203 202 202 203 202 201 199 199 198 200 205
227 228 228 227 228 227 224 216 211 207 206 204 204 205 204 204 200 200 200 200 200 207
227 228 230 233 233 231 225 218 214 210 210 207 206 205 205 204 203 200 198 197 195 253
230 229 231 236 235 232 227 220 215 211 212 210 208 206 205 202 200 198 195 191 229 240
235 232 233 235 236 236 231 223 215 211 211 211 209 208 206 203 200 198 192 208 226 243
234 234 233 235 237 238 233 223 215 213 213 210 208 207 206 205 202 196 202 231 226 244
236 233 233 235 239 239 235 226 218 215 213 211 209 206 207 205 203 200 225 255 228 244
239 238 235 235 237 239 237 229 222 218 215 212 211 207 207 208 201 219 243 247 232 245
240 238 237 235 237 241 238 230 224 220 217 215 213 210 210 210 209 232 254 248 235 239
243 240 239 239 240 241 237 230 224 220 219 219 217 215 215 214 223 242 258 249 249 238
241 242 240 239 239 240 237 231 226 226 223 222 221 221 221 218 235 250 261 249 255 248